CAPE
2319 2526 2466 2365 2079 1626 1905 1486 1292 902 637 476 393 592 515 419 403 224 267 258 210 197 291 314 289 330 271 232 442 372 369 275 138 85 50 25 27 1 6 0 0 0 0
2618 2572 2565 2412 2069 2006 1557 1710 924 1036 824 585 365 465 491 509 402 318 202 203 156 154 200 200 169 312 282 214 237 285 280 263 168 129 78 54 52 29 9 3 3 0 0
2818 2666 2386 2293 2033 2127 1824 1495 1135 948 676 683 499 364 270 269 235 209 64 62 37 106 163 110 45 207 325 299 344 325 238 262 156 128 93 70 83 32 1 0 8 7 0
2653 2644 2513 2190 2082 2017 1814 1606 1373 932 928 821 528 445 393 199 169 154 89 7 0 50 79 5 149 216 151 337 360 395 291 183 115 97 114 74 88 53 7 3 12 12 1
2666 2666 2428 2181 2255 2129 1671 1681 1257 1036 1059 879 711 422 220 189 153 137 60 34 0 14 34 79 137 81 9 45 219 340 310 207 146 169 168 113 82 46 15 17 12 8 1
2678 2600 2846 2474 2279 2141 1993 1695 1254 1011 955 806 591 482 334 150 110 88 58 23 22 46 15 52 67 31 0 7 234 297 277 193 369 177 161 163 133 131 82 34 33 8 8
2847 2930 3098 2612 2156 1845 1690 1736 1389 955 1046 818 750 564 462 355 204 60 1 5 8 21 36 10 14 92 45 0 60 251 269 185 48 35 205 88 142 133 57 32 30 29 24
3336 3100 2835 2515 1908 1787 1508 1252 1108 1084 1007 1266 1045 998 714 588 394 100 0 0 3 6 18 7 7 6 95 41 0 22 34 106 146 102 38 18 20 46 74 88 73 44 44
3407 2901 2860 2463 2204 1603 1250 1064 1171 1189 1402 1429 1214 1168 816 740 274 147 0 0 0 1 17 13 13 46 45 5 84 33 17 0 36 43 50 19 7 0 4 22 70 31 20
3507 3274 2953 2336 1903 1326 911 1064 1331 1394 1363 1257 1022 851 940 665 287 35 10 0 0 0 0 0 4 4 20 5 0 75 72 28 18 1 0 9 18 0 0 0 0 8 18
3099 2792 1296 606 20 169 673 1311 1293 1418 1296 1091 1131 944 571 412 201 92 10 2 0 0 0 0 4 8 2 0 0 39 33 42 101 37 6 4 11 98 31 1 0 0 3
2134 1691 1272 745 486 139 44 235 1077 1070 970 1124 1027 755 743 514 233 97 16 14 0 0 0 0 0 3 3 0 0 0 9 46 61 52 52 61 31 61 71 36 3 2 3
1166 1047 930 550 3 0 0 0 709 852 889 933 746 578 640 577 289 129 48 29 2 0 0 0 0 0 14 1 0 0 0 0 0 2 7 7 95 61 50 26 8 4 6
937 464 318 0 18 67 40 138 549 674 694 633 633 660 743 550 380 229 125 51 31 0 0 0 0 0 0 0 0 0 0 0 5 0 0 8 4 0 72 115 85 73 51
657 624 189 75 36 322 572 714 686 494 540 650 671 572 578 516 405 258 128 118 39 2 0 5 10 1 1 2 3 2 2 1 6 16 12 16 15 20 15 6 53 98 94
717 495 314 108 348 591 525 605 513 326 362 447 286 189 245 377 218 94 91 102 54 29 21 20 23 15 16 8 29 17 35 20 15 4 18 29 48 38 39 26 23 23 19
387 385 217 192 245 411 350 358 233 141 101 87 122 48 0 5 0 0 0 0 0 0 0 13 0 0 0 0 3 10 18 18 43 23 29 29 44 54 21 27 32 29 16
24 154 187 153 184 233 202 282 74 48 0 1 0 0 0 0 0 0 0 0 0 0 0 0 0 4 5 6 4 35 24 7 0 2 12 15 22 16 19 39 38 35 32
6 5 36 37 93 22 103 42 41 2 1 9 0 4 12 10 3 0 0 30 6 0 54 18 4 4 5 3 1 0 0 0 0 0 2 0 0 0 0 0 0 0 0
2 23 10 1 0 5 10 39 28 19 40 46 32 21 21 23 7 9 51 59 1 2 30 8 6 17 24 2 2 0 2 2 0 1 1 2 3 0 0 0 0 0 0
0 0 0 4 0 0 5 11 12 5 14 51 53 34 19 34 33 36 17 11 1 0 2 0 5 0 2 9 10 2 4 3 3 0 0 0 3 2 8 3 15 2 3
0 0 18 5 0 0 4 1 15 17 20 28 50 42 19 16 32 30 29 39 31 20 8 0 1 1 0 0 0 0 5 4 0 0 0 0 3 0 0 0 0 10 0
0 0 0 2 10 4 5 6 7 32 35 44 28 35 44 46 57 57 40 36 15 0 0 0 0 0 0 0 0 0 0 0 0 0 0 0 2 2 7 11 9 3 0
0 0 3 25 18 14 28 46 20 4 15 28 26 34 41 53 38 49 18 0 0 0 0 0 0 0 0 0 0 0 0 0 0 0 0 0 0 0 1 2 0 0 0
0 1 9 31 37 33 30 41 58 25 23 27 31 34 28 5 4 0 0 0 0 0 0 0 0 0 0 0 0 0 0 0 0 0 0 0 0 0 1 4 6 2 1
3 7 15 22 24 30 52 56 59 44 25 12 13 0 0 0 0 0 0 0 0 0 0 0 0 0 0 0 0 0 0 0 0 0 0 0 0 0 0 3 0 0 0
CIN
-111 -65 -47 -22 -23 -49 -15 -44 -24 -48 -79 -68 -78 -38 -35 -28 -29 -42 -31 -30 -34 -31 -24 -16 -22 -11 -11 -19 -16 -20 -7 -0 -10 -4 -11 -16 -8 -0 -0 -0 -0 -0 -0
-107 -81 -67 -58 -53 -30 -28 -2 -50 -24 -39 -51 -55 -44 -20 -17 -26 -35 -24 -10 -11 -22 -13 -13 -11 -42 -8 -17 -17 -17 -20 -11 -9 -4 -9 -6 -1 -11 -2 -0 -0 -0 -0
-56 -57 -94 -72 -86 -46 -22 -15 -38 -34 -52 -34 -23 -26 -43 -33 -22 -16 -21 -6 -5 -6 -6 -12 -24 -27 -7 -28 -10 -17 -40 -13 -23 -21 -3 -5 -0 -16 -8 -0 -3 -0 -0
-85 -67 -78 -102 -97 -67 -68 -39 -27 -33 -19 -16 -29 -36 -47 -45 -18 -31 -25 -9 -0 -8 -7 -5 -25 -28 -14 -21 -16 -5 -19 -29 -23 -12 -9 -10 -3 -4 -26 -3 -8 -0 -9
-92 -78 -104 -81 -62 -48 -81 -50 -46 -37 -9 -18 -19 -34 -36 -31 -15 -20 -43 -5 -0 -13 -10 -26 -10 -8 -6 -58 -17 -7 -15 -8 -4 -5 -2 -3 -3 -33 -10 -3 -3 -3 -2
-81 -84 -33 -35 -76 -65 -53 -49 -55 -48 -13 -5 -29 -26 -32 -31 -21 -23 -39 -4 -6 -6 -6 -10 -7 -7 -0 -16 -6 -2 -0 -2 -0 -0 -0 -1 -9 -10 -4 -75 -5 -6 -17
-50 -59 -49 -31 -80 -70 -56 -28 -35 -47 -20 -14 -22 -29 -22 -16 -13 -41 -19 -3 -5 -6 -4 -27 -20 -12 -17 -0 -28 -1 -1 -2 -9 -11 -0 -4 -4 -4 -1 -1 -3 -5 -8
-63 -56 -51 -62 -20 -12 -65 -81 -75 -52 -42 -26 -21 -12 -9 -11 -22 -34 -0 -0 -1 -6 -9 -18 -23 -35 -10 -7 -0 -33 -28 -13 -3 -5 -21 -38 -33 -19 -9 -0 -0 -0 -0
-39 -39 -57 -26 -48 -47 -66 -84 -47 -41 -22 -9 -13 -11 -16 -8 -48 -40 -0 -0 -0 -1 -12 -15 -26 -15 -12 -3 -14 -28 -11 -0 -31 -35 -36 -56 -43 -0 -19 -8 -0 -0 -0
-51 -49 -89 -68 -7 -34 -45 -76 -32 -30 -18 -10 -20 -14 -7 -13 -44 -154 -178 -0 -0 -0 -0 -0 -50 -97 -27 -46 -0 -32 -25 -46 -77 -11 -0 -16 -32 -0 -1 -0 -0 -0 -0
-49 -13 -21 -14 -12 -404 -39 -21 -19 -12 -17 -22 -8 -5 -13 -19 -65 -115 -271 -46 -0 -0 -0 -0 -3 -78 -33 -0 -0 -49 -21 -30 -17 -14 -44 -62 -54 -3 -19 -0 -0 -0 -0
-20 -37 -28 -30 -22 -39 -42 -18 -6 -20 -28 -8 -2 -21 -14 -16 -57 -184 -202 -189 -0 -0 -0 -0 -0 -50 -65 -0 -0 -0 -8 -7 -3 -0 -9 -23 -61 -62 -47 -47 -42 -50 -71
-103 -99 -52 -45 -5 -0 -0 -0 -7 -28 -35 -27 -27 -34 -11 -10 -48 -100 -183 -138 -66 -0 -0 -0 -0 -2 -5 -2 -0 -17 -0 -0 -0 -1 -5 -3 -15 -21 -81 -74 -40 -41 -70
-132 -114 -83 -0 -534 -234 -58 -0 -6 -34 -29 -31 -27 -13 -21 -7 -35 -36 -107 -121 -117 -0 -0 -0 -0 -0 -0 -0 -0 -0 -19 -0 -3 -0 -2 -13 -8 -0 -35 -37 -30 -33 -34
-91 -80 -95 -124 -159 -197 -28 -7 -23 -24 -26 -30 -33 -10 -19 -16 -43 -41 -62 -46 -88 -13 -0 -3 -0 -2 -3 -5 -10 -5 -6 -1 -0 -0 -0 -0 -1 -0 -0 -28 -7 -4 -8
-9 -39 -61 -113 -40 -3 -12 -13 -32 -36 -41 -27 -32 -45 -54 -18 -33 -100 -101 -77 -62 -55 -1 -0 -0 -0 -0 -1 -0 -2 -0 -10 -0 -10 -5 -3 -0 -0 -0 -1 -0 -0 -1
-4 -3 -13 -49 -17 -12 -16 -32 -39 -39 -22 -26 -40 -36 -0 -14 -0 -0 -0 -0 -0 -0 -0 -6 -0 -0 -0 -0 -8 -0 -3 -0 -27 -3 -9 -0 -6 -1 -0 -5 -1 -0 -0
-45 -5 -8 -1 -2 -0 -0 -8 -3 -14 -0 -0 -0 -0 -0 -0 -0 -0 -0 -0 -0 -0 -0 -0 -0 -15 -8 -7 -2 -4 -11 -2 -0 -0 -0 -0 -0 -0 -0 -4 -22 -0 -3
-29 -11 -19 -19 -12 -12 -3 -44 -3 -2 -0 -0 -0 -1 -6 -11 -6 -0 -0 -35 -48 -4 -13 -2 -3 -43 -29 -8 -0 -0 -0 -0 -0 -0 -0 -0 -0 -0 -0 -0 -0 -0 -0
-12 -4 -8 -1 -0 -0 -0 -3 -1 -2 -0 -0 -0 -0 -1 -2 -8 -0 -25 -4 -7 -27 -10 -15 -13 -18 -19 -0 -4 -0 -5 -2 -0 -0 -0 -0 -0 -0 -0 -0 -0 -0 -0
-0 -0 -0 -1 -0 -0 -1 -0 -0 -0 -0 -3 -5 -0 -0 -9 -9 -7 -13 -13 -0 -0 -15 -0 -14 -0 -48 -18 -5 -6 -0 -1 -0 -0 -0 -0 -0 -0 -0 -1 -3 -0 -1
-0 -0 -55 -15 -0 -0 -1 -0 -51 -17 -27 -23 -3 -4 -7 -0 -14 -18 -5 -1 -1 -0 -0 -0 -1 -0 -0 -0 -0 -0 -1 -0 -0 -0 -0 -0 -1 -0 -0 -1 -0 -1 -0
-0 -0 -0 -8 -55 -50 -35 -49 -23 -20 -12 -2 -2 -0 -0 -1 -0 -1 -1 -0 -2 -2 -0 -0 -0 -0 -0 -0 -0 -0 -0 -0 -0 -0 -0 -0 -4 -10 -9 -6 -9 -7 -0
-0 -0 -2 -3 -1 -2 -11 -15 -10 -8 -16 -13 -7 -0 -0 -0 -0 -0 -2 -1 -0 -0 -0 -0 -0 -0 -0 -0 -0 -0 -0 -0 -0 -0 -0 -0 -0 -0 -0 -0 -0 -0 -0
-0 -1 -3 -2 -2 -2 -5 -4 -4 -0 -3 -8 -1 -0 -0 -21 -27 -0 -0 -0 -0 -0 -0 -0 -0 -0 -0 -0 -0 -0 -0 -0 -0 -0 -0 -0 -0 -0 -2 -10 -14 -0 -5
-8 -0 -0 -0 -2 -3 -0 -0 -0 -0 -3 -0 -3 -0 -0 -0 -0 -0 -0 -0 -0 -0 -0 -0 -0 -0 -0 -0 -0 -0 -0 -0 -0 -0 -0 -0 -0 -0 -0 -9 -3 -0 -0
Wind_Speed
22 23 26 22 22 22 20 19 19 17 16 16 18 19 20 19 17 16 13 9 7 8 9 10 10 16 19 19 21 22 25 27 30 nan nan nan nan nan nan nan nan nan nan
17 22 26 27 22 22 19 19 18 18 17 18 19 20 21 20 21 20 16 17 13 10 8 8 10 15 18 21 21 18 23 28 30 26 nan nan nan nan nan nan nan nan nan
15 22 23 25 24 20 19 21 20 20 20 17 19 21 19 19 20 19 nan nan nan 16 16 19 nan 14 13 14 16 17 21 25 27 24 nan nan nan nan nan nan nan nan nan
19 23 23 19 20 18 14 15 16 19 20 18 19 21 22 20 17 17 nan nan nan nan nan nan 24 23 21 19 18 18 20 20 21 nan 20 nan nan nan nan nan nan nan nan
23 21 19 17 17 19 18 18 19 17 17 17 19 20 21 22 19 17 nan nan nan nan nan nan 25 nan nan nan 19 19 24 25 25 25 16 21 nan nan nan nan nan nan nan
22 24 21 24 25 22 21 22 23 20 17 21 18 19 21 20 26 nan nan nan nan nan nan nan nan nan nan nan 29 26 24 26 25 25 22 17 22 27 nan nan nan nan nan
24 23 27 25 30 29 28 26 24 24 21 21 15 16 17 19 23 nan nan nan nan nan nan nan nan nan nan nan nan 29 29 25 nan nan 26 nan 25 23 nan nan nan nan nan
33 30 29 33 31 34 33 31 30 28 23 24 15 14 15 20 26 25 nan nan nan nan nan nan nan nan nan nan nan nan nan 26 22 23 nan nan nan nan nan nan nan nan nan
40 36 37 41 41 39 38 39 35 36 28 23 16 13 19 19 26 26 nan nan nan nan nan nan nan nan nan nan nan nan nan nan nan nan nan nan nan nan nan nan nan nan nan
38 43 50 42 47 43 46 47 41 40 33 26 21 17 21 25 26 nan nan nan nan nan nan nan nan nan nan nan nan nan nan nan nan nan nan nan nan nan nan nan nan nan nan
44 59 71 56 nan 19 64 45 48 42 31 28 25 23 24 25 25 nan nan nan nan nan nan nan nan nan nan nan nan nan nan nan 28 nan nan nan nan nan nan nan nan nan nan
62 65 70 68 69 59 nan 30 34 28 28 30 30 29 24 27 33 nan nan nan nan nan nan nan nan nan nan nan nan nan nan nan nan nan nan nan nan nan nan nan nan nan nan
63 61 63 60 nan nan nan nan 18 22 30 28 29 28 26 28 30 30 nan nan nan nan nan nan nan nan nan nan nan nan nan nan nan nan nan nan nan nan nan nan nan nan nan
60 56 54 nan nan nan nan 17 10 16 27 24 25 27 30 25 31 30 22 nan nan nan nan nan nan nan nan nan nan nan nan nan nan nan nan nan nan nan nan 25 nan nan nan
50 48 42 nan nan 41 36 35 26 19 28 25 24 26 30 24 27 28 26 23 nan nan nan nan nan nan nan nan nan nan nan nan nan nan nan nan nan nan nan nan nan nan nan
44 43 40 37 33 34 34 33 34 29 27 44 38 38 31 41 37 nan nan 34 nan nan nan nan nan nan nan nan nan nan nan nan nan nan nan nan nan nan nan nan nan nan nan
42 44 42 38 32 30 33 33 33 32 36 nan 38 nan nan nan nan nan nan nan nan nan nan nan nan nan nan nan nan nan nan nan nan nan nan nan nan nan nan nan nan nan nan
nan 42 41 37 34 37 35 26 nan nan nan nan nan nan nan nan nan nan nan nan nan nan nan nan nan nan nan nan nan nan nan nan nan nan nan nan nan nan nan nan nan nan nan
nan nan nan nan nan nan 38 nan nan nan nan nan nan nan nan nan nan nan nan nan nan nan nan nan nan nan nan nan nan nan nan nan nan nan nan nan nan nan nan nan nan nan nan
nan nan nan nan nan nan nan nan nan nan nan nan nan nan nan nan nan nan nan nan nan nan nan nan nan nan nan nan nan nan nan nan nan nan nan nan nan nan nan nan nan nan nan
nan nan nan nan nan nan nan nan nan nan nan nan nan nan nan nan nan nan nan nan nan nan nan nan nan nan nan nan nan nan nan nan nan nan nan nan nan nan nan nan nan nan nan
nan nan nan nan nan nan nan nan nan nan nan nan nan nan nan nan nan nan nan nan nan nan nan nan nan nan nan nan nan nan nan nan nan nan nan nan nan nan nan nan nan nan nan
nan nan nan nan nan nan nan nan nan nan nan nan nan nan nan nan nan nan nan nan nan nan nan nan nan nan nan nan nan nan nan nan nan nan nan nan nan nan nan nan nan nan nan
nan nan nan nan nan nan nan nan nan nan nan nan nan nan nan nan nan nan nan nan nan nan nan nan nan nan nan nan nan nan nan nan nan nan nan nan nan nan nan nan nan nan nan
nan nan nan nan nan nan nan nan nan nan nan nan nan nan nan nan nan nan nan nan nan nan nan nan nan nan nan nan nan nan nan nan nan nan nan nan nan nan nan nan nan nan nan
nan nan nan nan nan nan nan nan nan nan nan nan nan nan nan nan nan nan nan nan nan nan nan nan nan nan nan nan nan nan nan nan nan nan nan nan nan nan nan nan nan nan nan
Wind_Direction
337 338 340 340 341 346 350 358 355 353 354 354 347 334 335 339 327 309 309 296 298 293 275 268 259 267 255 252 255 258 250 256 259 nan nan nan nan nan nan nan nan nan nan
338 341 347 347 346 344 352 357 352 352 351 358 347 349 353 344 341 337 324 292 302 292 294 293 253 253 255 256 253 251 261 260 258 263 nan nan nan nan nan nan nan nan nan
307 323 334 345 348 346 348 341 343 342 345 355 340 340 343 342 343 337 nan nan nan 276 282 272 nan 242 240 242 242 241 254 255 263 269 nan nan nan nan nan nan nan nan nan
310 315 323 333 342 342 352 351 346 338 338 338 343 346 345 334 334 330 nan nan nan nan nan nan 264 264 258 251 245 256 261 254 257 nan 275 nan nan nan nan nan nan nan nan
324 318 320 319 325 323 330 326 322 322 338 340 328 337 340 321 309 325 nan nan nan nan nan nan 274 nan nan nan 262 267 267 263 261 267 292 204 nan nan nan nan nan nan nan
324 321 306 310 309 317 315 319 318 316 333 330 322 321 322 328 326 nan nan nan nan nan nan nan nan nan nan nan 250 253 270 271 266 259 246 247 260 267 nan nan nan nan nan
300 296 296 306 308 308 299 302 305 310 308 322 313 308 317 321 330 nan nan nan nan nan nan nan nan nan nan nan nan 254 250 255 nan nan 268 nan 267 270 nan nan nan nan nan
296 294 294 297 300 295 297 293 294 294 308 320 297 309 315 315 324 328 nan nan nan nan nan nan nan nan nan nan nan nan nan 264 269 267 nan nan nan nan nan nan nan nan nan
305 300 296 293 289 287 286 284 279 283 288 295 303 306 312 308 311 322 nan nan nan nan nan nan nan nan nan nan nan nan nan nan nan nan nan nan nan nan nan nan nan nan nan
296 300 292 280 283 284 277 269 263 271 276 286 296 303 310 312 315 nan nan nan nan nan nan nan nan nan nan nan nan nan nan nan nan nan nan nan nan nan nan nan nan nan nan
274 278 268 267 nan 249 244 243 258 262 273 277 285 298 309 310 316 nan nan nan nan nan nan nan nan nan nan nan nan nan nan nan 277 nan nan nan nan nan nan nan nan nan nan
277 280 287 297 300 291 nan 212 225 258 265 276 287 290 308 305 314 nan nan nan nan nan nan nan nan nan nan nan nan nan nan nan nan nan nan nan nan nan nan nan nan nan nan
281 287 288 292 nan nan nan nan 219 252 273 285 280 294 298 292 304 299 nan nan nan nan nan nan nan nan nan nan nan nan nan nan nan nan nan nan nan nan nan nan nan nan nan
281 285 288 nan nan nan nan 120 200 253 260 271 286 296 299 302 305 288 263 nan nan nan nan nan nan nan nan nan nan nan nan nan nan nan nan nan nan nan nan 303 nan nan nan
280 278 272 nan nan 296 297 300 275 276 271 280 292 291 288 306 317 298 281 284 nan nan nan nan nan nan nan nan nan nan nan nan nan nan nan nan nan nan nan nan nan nan nan
279 280 278 279 284 293 291 279 261 272 277 285 287 289 281 291 294 nan nan 278 nan nan nan nan nan nan nan nan nan nan nan nan nan nan nan nan nan nan nan nan nan nan nan
267 270 274 276 274 276 287 293 287 270 260 nan 272 nan nan nan nan nan nan nan nan nan nan nan nan nan nan nan nan nan nan nan nan nan nan nan nan nan nan nan nan nan nan
nan 268 277 275 271 273 276 285 nan nan nan nan nan nan nan nan nan nan nan nan nan nan nan nan nan nan nan nan nan nan nan nan nan nan nan nan nan nan nan nan nan nan nan
nan nan nan nan nan nan 273 nan nan nan nan nan nan nan nan nan nan nan nan nan nan nan nan nan nan nan nan nan nan nan nan nan nan nan nan nan nan nan nan nan nan nan nan
nan nan nan nan nan nan nan nan nan nan nan nan nan nan nan nan nan nan nan nan nan nan nan nan nan nan nan nan nan nan nan nan nan nan nan nan nan nan nan nan nan nan nan
nan nan nan nan nan nan nan nan nan nan nan nan nan nan nan nan nan nan nan nan nan nan nan nan nan nan nan nan nan nan nan nan nan nan nan nan nan nan nan nan nan nan nan
nan nan nan nan nan nan nan nan nan nan nan nan nan nan nan nan nan nan nan nan nan nan nan nan nan nan nan nan nan nan nan nan nan nan nan nan nan nan nan nan nan nan nan
nan nan nan nan nan nan nan nan nan nan nan nan nan nan nan nan nan nan nan nan nan nan nan nan nan nan nan nan nan nan nan nan nan nan nan nan nan nan nan nan nan nan nan
nan nan nan nan nan nan nan nan nan nan nan nan nan nan nan nan nan nan nan nan nan nan nan nan nan nan nan nan nan nan nan nan nan nan nan nan nan nan nan nan nan nan nan
nan nan nan nan nan nan nan nan nan nan nan nan nan nan nan nan nan nan nan nan nan nan nan nan nan nan nan nan nan nan nan nan nan nan nan nan nan nan nan nan nan nan nan
nan nan nan nan nan nan nan nan nan nan nan nan nan nan nan nan nan nan nan nan nan nan nan nan nan nan nan nan nan nan nan nan nan nan nan nan nan nan nan nan nan nan nan